User: anonymous   Login
Location: Binningen
(47.7924°N, 8.7261°E)
Time: 16:23:01
(UTC+00:00)
Language:

ERS-1 Rocket - Orbit

View from above orbital plane
View from above orbital plane
View from above satellite
View from above satellite

Ground track
Ground track

The orbit data is extracted from the following two-line orbital elements,

1 21610U 91050F   21207.46794067  .00000044  00000-0  27085-4 0  9994
2 21610  98.4217 277.6309 0004363 118.3373 252.2859 14.40957037575885
Epoch (UTC): 26 July 2021 11:13:50
Eccentricity: 0.0004363
inclination: 98.4217°
perigee height: 752 km
apogee height: 758 km
right ascension of ascending node: 277.6309°
argument of perigee: 118.3373°
revolutions per day: 14.40957037
mean anomaly at epoch: 252.2859°
orbit number at epoch: 57588

The dashed part of the orbit path shows where the satellite is in the earth's shadow,  

DLR